Hourly Data Report for June 27, 2021

WINNIPEG THE FORKS
MANITOBA
Current Station Operator: ECCC - MSC

49°53'18.008" N
97°07'46.007" W
230.00 m
5023262
71579
XWN

Download Data

Hourly Data (June 2021)
Hourly Data Report for June 27, 2021
TIME
LST
Temp Definition
°C
Dew Point Definition
°C
Rel Hum Definition
%
Precip. Amount Definition
mm

Wind Dir Definition
10's deg

Wind Spd Definition
km/h
Visibility Definition
km
Stn Press Definition
kPa
Hmdx Definition


Wind Chill Definition


Weather Definition


00:00 19.9 13.1 65 0.0 29 3   98.42     LegendNANA
01:00 19.4 12.8 66 0.0 31 3   98.41     LegendNANA
02:00 17.8 12.4 71 0.0 0 1   98.39     LegendNANA
03:00 17.7 9.5 59 0.0   0   98.40     LegendNANA
04:00 17.7 8.8 56 0.0   0   98.42     LegendNANA
05:00 17.4 6.6 49 0.0   0   98.43     LegendNANA
06:00 18.7 7.1 47 0.0   0   98.42     LegendNANA
07:00 19.7 7.1 44 0.0 30 3   98.46     LegendNANA
08:00 21.6 6.5 37 0.0 28 4   98.49     LegendNANA
09:00 23.0 6.1 34 0.0 31 6   98.52     LegendNANA
10:00 25.1 6.3 30 0.0 31 8   98.53 25   LegendNANA
11:00 25.1 11.0 41 0.0 27 10   98.58 27   LegendNANA
12:00 25.8 13.3 46 0.0 27 8   98.61 29   LegendNANA
13:00 22.5 12.5 53 0.0 26 12   98.66 25   LegendNANA
14:00 24.0 12.3 48 0.0 29 8   98.64 26   LegendNANA
15:00 24.0 11.8 46 0.0 30 8   98.62 26   LegendNANA
16:00 24.4 11.5 45 0.0 27 7   98.63 26   LegendNANA
17:00 24.9 11.4 43 0.0 32 8   98.65 27   LegendNANA
18:00 25.1 9.6 38 0.0 33 12   98.68 26   LegendNANA
19:00 23.0 12.2 51 0.0 34 12   98.73 25   LegendNANA
20:00 21.9 11.7 52 0.0 35 7   98.74     LegendNANA
21:00 21.2 11.5 54 0.0 35 11   98.75     LegendNANA
22:00 20.3 12.4 61 0.0 33 8   98.82     LegendNANA
23:00 19.4 12.5 64 0.0 33 6   98.85     LegendNANA

Notes on Data Quality.

Legend

  • E = Estimated
  • M = Missing
  • NA = Not Available*
  • [empty] = Indicates an unobserved value
Date modified: